This is the latest recevied weather packets stored in our database for station/object W4KAB. If no packets are shown the sender has not sent any weather packets the latest 10 day(s).
| Time | Temp. | Humidity | Pressure | Rain* | Wind** | Luminosity | Snow |
|---|---|---|---|---|---|---|---|
| 1778187632 | 18.33° C | 81% | 1010.6 hPa | 0 mm | - | 87 W/m² | - |
| 1778187329 | 18.89° C | 81% | 1010.5 hPa | 0 mm | - | 107 W/m² | - |
| 1778187025 | 18.89° C | 80% | 1010.5 hPa | 0 mm | - | 145 W/m² | - |
| 1778186721 | 18.89° C | 80% | 1010.4 hPa | 0 mm | - | 192 W/m² | - |
| 1778186420 | 18.89° C | 79% | 1010.4 hPa | 0 mm | - | 125 W/m² | - |
| 1778186117 | 20° C | 77% | 1010.5 hPa | 0 mm | - | 116 W/m² | - |
| 1778185815 | 20° C | 75% | 1010.4 hPa | 0 mm | - | 551 W/m² | - |
| 1778185510 | 20° C | 75% | 1010.3 hPa | 0 mm | - | 567 W/m² | - |
| 1778185206 | 20.56° C | 75% | 1010.3 hPa | 0 mm | - | 564 W/m² | - |
| 1778184902 | 20° C | 76% | 1010.1 hPa | 0 mm | - | 573 W/m² | - |
| 1778184598 | 20° C | 77% | 1010 hPa | 0 mm | - | 586 W/m² | - |
| 1778184294 | 20° C | 77% | 1010.2 hPa | 0 mm | - | 590 W/m² | - |
| 1778183990 | 20° C | 77% | 1010.3 hPa | 0 mm | - | 610 W/m² | - |
| 1778183688 | 20° C | 78% | 1010.3 hPa | 0 mm | - | 603 W/m² | - |
| 1778183385 | 19.44° C | 79% | 1010.2 hPa | 0 mm | - | 619 W/m² | - |
| 1778183082 | 19.44° C | 79% | 1010.4 hPa | 0 mm | - | 679 W/m² | - |
| 1778182777 | 20° C | 79% | 1010.5 hPa | 0 mm | - | 322 W/m² | - |
| 1778182475 | 19.44° C | 79% | 1010.2 hPa | 0 mm | - | 226 W/m² | - |
| 1778182171 | 18.33° C | 82% | 1010.5 hPa | 0 mm | - | 695 W/m² | - |
| 1778181867 | 17.78° C | 85% | 1010.4 hPa | 0 mm | - | 204 W/m² | - |
| 1778181564 | 17.78° C | 83% | 1010.7 hPa | 0 mm | - | 101 W/m² | - |
| 1778181260 | 17.78° C | 84% | 1010.6 hPa | 0 mm | - | 157 W/m² | - |
| 1778180957 | 17.78° C | 84% | 1010.5 hPa | 0 mm | - | 166 W/m² | - |
| 1778180655 | 17.78° C | 85% | 1010.6 hPa | 0 mm | - | 191 W/m² | - |
| 1778180354 | 17.78° C | 85% | 1010.5 hPa | 0 mm | - | 78 W/m² | - |
* Rain latest hour (hover to see other rain measurements)
** Current wind speed in m/s (hover to see current wind gust speed)